Tracking 18876 objects as of 16-Dec-2017
HD Live streaming from Space Station
objects crossing your sky now

SSU 1

Track SSU 1 now!
10-day predictions
SSU 1 is classified as:


NORAD ID: 8835
Int'l Code: 1976-038C
Perigee: 455.0 km
Apogee: 1,483.3 km
Inclination: 63.3 °
Period: 104.3 minutes
Semi major axis: 7340 km
RCS: Unknown
Launch date: April 30, 1976
Source: United States (US)
Launch site: AIR FORCE WESTERN TEST RANGE (AFWTR)
aabbcc
Your satellite tracking list
Your tracking list is empty




NASA's NSSDC Master Catalog

Two Line Element Set (TLE):
1 08835U 76038C   17343.68324658 0.00000430  00000-0  57386-4 0    01
2 08835  63.3123 193.8093 0700456 137.9097 222.0903 13.80533857    06
Source of the keplerian elements: McCants